Weather History for CYBN - October, 2011

Change the Weather History Date:

Monday, October 24, 2011

  Actual Average Record
Temperature  
Mean Temperature 49 °F -  
Max Temperature 56 °F 45 °F 69 °F (2001)
Min Temperature 42 °F 31 °F 24 °F (2002)
Degree Days  
Heating Degree Days 16    
Moisture  
Dew Point 43 °F    
Average Humidity 79    
Maximum Humidity 100    
Minimum Humidity 41    
Precipitation  
Precipitation 0.00 in - - ()
Sea Level Pressure  
Sea Level Pressure 29.85 in    
Wind  
Wind Speed 8 mph ()    
Max Wind Speed 18 mph    
Max Gust Speed 30 mph    
Visibility 8.3 miles    
Events Rain    
Averages and records for this station are not official NWS values.
T = Trace of Precipitation, MM = Missing Value Source: Averaged Metar Reports

Daily Weather History Graph

Daily Weather History Graph

Search for Another Location

Airport or City:

Trip Planner

Search our weather history database for the weather conditions in past years. The results will help you decide how hot, cold, wet, or windy it might be!

Date:

Astronomy

Oct. 24, 2011 Rise Set
Actual Time 7:45 AM EDT 6:21 PM EDT
Civil Twilight 7:16 AM EDT 6:51 PM EDT
Nautical Twilight 6:42 AM EDT 7:24 PM EDT
Astronomical Twilight 6:08 AM EDT 7:58 PM EDT
Moon 4:57 AM EDT (10/24) 4:48 PM EDT (10/24)
Length of Visible Light 11h 34m
Length of Day
10h 35m
Waning Crescent, 7% of the Moon is Illuminated
Oct 24
Waning Crescent
Oct 26
New
Nov 2
First Quarter
Nov 10
Full
Nov 18
Last Quarter

Hourly Weather History & Observations

Time (EDT) Temp. Windchill Dew Point Humidity Pressure Visibility Wind Dir Wind Speed Gust Speed Precip Events Conditions
12:00 AM 46.4 °F 44.3 °F 41.0 °F 81% 29.94 in 9.0 mi South 4.6 mph - N/A   Mostly Cloudy
1:00 AM 46.4 °F 44.3 °F 41.0 °F 81% 29.93 in 9.0 mi South 4.6 mph - N/A   Clear
2:00 AM 46 °F - 42 °F 82% 29.90 in 9 mi SSE 6.9 mph - -  
2:00 AM 46.4 °F 42.9 °F 42.8 °F 87% 29.90 in 9.0 mi SSE 6.9 mph - N/A   Clear
3:00 AM 46.4 °F 42.4 °F 42.8 °F 87% 29.87 in 9.0 mi SSE 8.1 mph - N/A   Clear
4:00 AM 48.2 °F - 44.6 °F 87% 29.85 in 9.0 mi SSE 9.2 mph - N/A   Overcast
5:00 AM 46.4 °F 41.9 °F 44.6 °F 93% 29.83 in 9.0 mi SSE 9.2 mph - N/A   Mostly Cloudy
6:00 AM 48.2 °F - 44.6 °F 87% 29.81 in 9.0 mi SSE 10.4 mph - N/A   Scattered Clouds
6:59 AM 48.2 °F - 46.4 °F 93% 29.79 in 9.0 mi South 10.4 mph - N/A Rain Light Rain
7:00 AM 48.2 °F - 46.4 °F 93% 29.80 in 9.0 mi South 11.5 mph - N/A Rain Light Rain
7:18 AM 48.2 °F - 46.4 °F 93% 29.78 in 2.4 mi South 10.4 mph - N/A Rain Rain
7:39 AM 48.2 °F - 48.2 °F 100% 29.77 in 4.0 mi South 8.1 mph - N/A Rain Light Rain
7:51 AM 50.0 °F - 48.2 °F 94% 29.78 in 4.0 mi South 11.5 mph - N/A Rain Light Rain
8:00 AM 49 °F - 49 °F 100% 29.79 in 5 mi South 10.4 mph - -   Unknown Precipitation
8:00 AM 50.0 °F - 48.2 °F 94% 29.79 in 5.0 mi South 9.2 mph - N/A Rain Light Rain
9:00 AM 50.0 °F - 50.0 °F 100% 29.79 in 6.0 mi South 6.9 mph - N/A   Mostly Cloudy
10:00 AM 50.0 °F - 48.2 °F 94% 29.79 in 9.0 mi South 6.9 mph - N/A   Overcast
10:12 AM 50.0 °F - 48.2 °F 94% 29.78 in 9.0 mi SSW 6.9 mph - N/A   Overcast
11:00 AM 50.0 °F - 48.2 °F 94% 29.81 in 9.0 mi South 6.9 mph - N/A   Overcast
11:56 AM 51.8 °F - 48.2 °F 88% 29.80 in 9.0 mi SW 9.2 mph - N/A   Mostly Cloudy
12:00 PM 51.8 °F - 48.2 °F 88% 29.81 in 9.0 mi SW 8.1 mph - N/A   Mostly Cloudy
12:12 PM 53.6 °F - 48.2 °F 82% 29.80 in 9.0 mi WSW 11.5 mph - N/A   Overcast
12:34 PM 51.8 °F - 46.4 °F 82% 29.81 in 9.0 mi WNW 17.3 mph - N/A Rain Light Rain
12:37 PM 51.8 °F - 44.6 °F 76% 29.81 in 9.0 mi West 11.5 mph 20.7 mph N/A   Overcast
12:50 PM 53.6 °F - 44.6 °F 72% 29.81 in 9.0 mi West 10.4 mph 17.3 mph N/A   Overcast
1:00 PM 53.6 °F - 46.4 °F 77% 29.82 in 9.0 mi WNW 8.1 mph 17.3 mph N/A   Mostly Cloudy
2:00 PM 54 °F - 37 °F 41% 29.82 in 9 mi West 18.4 mph - -  
3:00 PM 55.4 °F - 35.6 °F 47% 29.83 in 9.0 mi West 15.0 mph 25.3 mph N/A   Scattered Clouds
3:33 PM 53.6 °F - 35.6 °F 51% 29.82 in 9.0 mi West 15.0 mph - N/A Rain Light Rain
3:47 PM 55.4 °F - 37.4 °F 51% 29.83 in 9.0 mi West 15.0 mph 29.9 mph N/A   Overcast
4:00 PM 55.4 °F - 35.6 °F 47% 29.85 in 9.0 mi West 17.3 mph 28.8 mph N/A   Mostly Cloudy
5:00 PM 53.6 °F - 37.4 °F 54% 29.87 in 9.0 mi West 11.5 mph 17.3 mph N/A   Mostly Cloudy
6:00 PM 51.8 °F - 39.2 °F 62% 29.88 in 9.0 mi West 11.5 mph - N/A   Mostly Cloudy
7:00 PM 51.8 °F - 37.4 °F 58% 29.91 in 9.0 mi West 9.2 mph - N/A   Mostly Cloudy
8:00 PM 48 °F - 39 °F 61% 29.94 in 9 mi WNW 11.5 mph - -  
8:00 PM 48.2 °F - 39.2 °F 71% 29.94 in 9.0 mi WNW 13.8 mph - N/A   Partly Cloudy
9:00 PM 44.6 °F 40.2 °F 39.2 °F 81% 29.97 in 9.0 mi WNW 8.1 mph - N/A   Clear
10:00 PM 42.8 °F 39.3 °F 37.4 °F 81% 29.99 in 9.0 mi WNW 5.8 mph - N/A   Partly Cloudy
11:00 PM 42.8 °F 38.0 °F 37.4 °F 81% 29.99 in 9.0 mi West 8.1 mph - N/A   Mostly Cloudy